Location: Oregon Star Party
(44.2935°N, 120.1332°W)
Time: 10:47:00
(UTC-08:00)

Amateur Radio Satellites - All Passes

Search period start: 08 February 2016 10:17
Search period end: 09 February 2016 10:17
Location: Oregon Star Party, 44.2935°N, 120.1332°W

Satellite Date Start Highest point End Downlink Frequencies (MHz)
Time Altitude Azimuth
COMPASS 1 08 Feb 10:22:02 10:23:39 12° 299° (WNW) 10:25:15 437.405
GONETS M04 08 Feb 10:31:59 10:39:51 37° 291° (WNW) 10:47:49
JAS-2 08 Feb 10:38:13 10:40:40 12° 51° (NE) 10:43:04 435.910
PCSat 08 Feb 10:41:21 10:46:23 40° 112° (ESE) 10:51:27 145.827
DELFI C3 08 Feb 10:43:05 10:46:36 29° 291° (WNW) 10:50:05 145.870
POLYITAN 1 08 Feb 10:43:44 10:47:57 68° 259° (WSW) 10:52:10 437.675
QB50P2 08 Feb 10:44:28 10:48:42 65° 259° (W) 10:52:55 145.880/145.840
BUGSAT 1 08 Feb 10:56:06 11:00:19 81° 78° (ENE) 11:04:31 437.445
ZACube-1 08 Feb 10:57:47 11:00:31 17° 296° (WNW) 11:03:16 437.345
ANTELSAT 08 Feb 10:58:07 11:00:20 14° 270° (W) 11:02:32 437.575/2403.000
VELOX 1 08 Feb 11:03:15 11:07:21 35° 97° (E) 11:11:23 145.980
Cosmos 2499 08 Feb 11:04:42 11:13:04 49° 287° (WNW) 11:21:39 435.465 / 435.565
TIGRISAT 08 Feb 11:06:15 11:07:53 12° 270° (W) 11:09:31 435.000
HO-68 08 Feb 11:07:20 11:10:17 13° 314° (NW) 11:13:14 435.675
FUNcube-1 08 Feb 11:08:10 11:10:25 14° 297° (WNW) 11:12:42 145.935
POPSAT HIP 1 08 Feb 11:15:14 11:19:02 32° 263° (W) 11:22:51 437.405
50 SAT 08 Feb 11:15:32 11:19:18 62° 101° (E) 11:23:05 437.505
AISAT 08 Feb 11:19:26 11:23:48 55° 101° (E) 11:28:07 437.250
NANOSAT C BR1 08 Feb 11:21:12 11:24:51 28° 264° (W) 11:28:31 145.865
DUCHIFAT 1 08 Feb 11:23:25 11:27:03 28° 264° (W) 11:30:42 145.980
Oscar 19 08 Feb 11:28:20 11:32:26 24° 63° (ENE) 11:36:32 437.125/150
QB50P1 08 Feb 11:28:33 11:31:57 23° 266° (W) 11:35:23 145.935-145.965
HUMSAT D 08 Feb 11:30:40 11:33:57 23° 293° (WNW) 11:37:14 437.325/437.525
ESTCUBE 1 08 Feb 11:34:28 11:39:03 87° 104° (ESE) 11:43:36 437.505/2401.250
RS-15 08 Feb 11:34:54 11:45:44 63° 115° (ESE) 11:57:12 29.354- 29.394
UKube-1 08 Feb 11:41:39 11:46:01 84° 106° (ESE) 11:50:19 .
CUBEBUG 1 08 Feb 11:44:04 11:48:28 83° 103° (ESE) 11:52:49 437.445
Gurwin Techsat 1B 08 Feb 11:47:23 11:50:19 15° 58° (ENE) 11:53:16 435.225
CUSAT 1 08 Feb 11:47:48 11:53:08 27° 63° (ENE) 11:57:24 437.405
AO-85 08 Feb 11:48:20 11:53:31 44° 313° (NW) 11:58:48 145.980
AIST 1 08 Feb 11:49:50 11:53:23 23° 288° (WNW) 11:56:56
DX 1 08 Feb 11:50:43 11:55:04 67° 286° (WNW) 11:59:22 434.975-435.025
SPROUT 08 Feb 11:53:59 11:57:59 38° 98° (E) 12:01:56 437.525
SO-50 08 Feb 11:58:48 12:01:39 15° 31° (NNE) 12:04:26 436.795
DANDE 08 Feb 12:06:29 12:12:44 28° 62° (ENE) 12:17:51 436.750
TISAT 1 08 Feb 12:09:55 12:13:07 21° 94° (E) 12:16:18 437.305
JAS-2 08 Feb 12:16:59 12:24:23 54° 69° (ENE) 12:31:11 435.910
PCSat 08 Feb 12:24:54 12:29:50 35° 312° (NW) 12:34:49 145.827
AO-7 08 Feb 12:28:29 12:33:14 17° 43° (NE) 12:37:59 29.400- 29.500
ITAMSAT 1 08 Feb 12:33:56 12:37:42 21° 61° (ENE) 12:41:28 435.822/435.867
VELOX 1 08 Feb 12:40:06 12:43:39 24° 295° (WNW) 12:47:12 145.980
50 SAT 08 Feb 12:51:34 12:52:51 11° 298° (WNW) 12:54:08 437.505
AISAT 08 Feb 12:57:05 12:59:52 17° 298° (WNW) 13:02:38 437.250
SWISSCUBE 08 Feb 12:59:57 13:02:56 16° 91° (E) 13:05:54 437.505
Oscar 19 08 Feb 13:06:28 13:11:28 48° 261° (W) 13:16:29 437.125/150
Cosmos 2499 08 Feb 13:06:48 13:08:49 11° 311° (NW) 13:10:50 435.465 / 435.565
ESTCUBE 1 08 Feb 13:13:32 13:15:10 12° 301° (WNW) 13:16:48 437.505/2401.250
YUBILEINY 08 Feb 13:17:47 13:25:42 35° 68° (ENE) 13:33:33 435.215
UKube-1 08 Feb 13:20:04 13:21:24 11° 301° (WNW) 13:22:45 .
CUBEBUG 1 08 Feb 13:22:39 13:24:06 11° 301° (WNW) 13:25:33 437.445
Gurwin Techsat 1B 08 Feb 13:24:14 13:29:33 85° 256° (WSW) 13:34:55 435.225
Cosmos 2491 08 Feb 13:28:23 13:33:21 17° 75° (ENE) 13:38:19 435.465 / 435.565
CUSAT 1 08 Feb 13:29:56 13:35:45 42° 271° (W) 13:40:13 437.405
SPROUT 08 Feb 13:30:30 13:33:44 21° 295° (WNW) 13:36:56 437.525
AO-85 08 Feb 13:32:45 13:35:28 14° 334° (NNW) 13:38:11 145.980
ITUPSAT 1 08 Feb 13:34:57 13:39:15 31° 96° (E) 13:43:31 437.325
SO-50 08 Feb 13:38:16 13:43:06 66° 52° (NE) 13:47:46 436.795
BEESAT 08 Feb 13:44:20 13:48:51 39° 98° (E) 13:53:20 436.000
TISAT 1 08 Feb 13:45:05 13:48:54 35° 291° (WNW) 13:52:42 437.305
RS-15 08 Feb 13:47:51 13:58:40 49° 321° (NW) 14:10:08 29.354- 29.394
DANDE 08 Feb 13:49:08 13:56:22 58° 267° (W) 14:01:55 436.750
M-CUBED/EXP-1 PRIME 08 Feb 13:54:32 13:56:44 16° 61° (ENE) 13:58:52 437.505
Cosmos 2504 08 Feb 13:58:09 14:02:22 14° 53° (NE) 14:06:29 435.465 / 435.565
JAS-2 08 Feb 14:02:45 14:09:33 34° 265° (W) 14:15:56 435.910
AUBIESAT-1 08 Feb 14:05:32 14:07:55 17° 61° (ENE) 14:10:13 437.475
ITAMSAT 1 08 Feb 14:11:38 14:16:44 58° 259° (W) 14:21:53 435.822/435.867
KKS-1 08 Feb 14:14:50 14:15:57 11° 88° (E) 14:17:05 437.445
AO-7 08 Feb 14:16:12 14:24:24 62° 65° (ENE) 14:32:38 29.400- 29.500
SWISSCUBE 08 Feb 14:36:24 14:41:08 60° 288° (WNW) 14:45:51 437.505
HORYU 2 08 Feb 14:39:47 14:43:22 25° 66° (ENE) 14:46:57 437.375
Gurwin Techsat 1B 08 Feb 15:08:49 15:10:17 11° 273° (W) 15:11:45 435.225
ITUPSAT 1 08 Feb 15:12:49 15:17:03 31° 293° (WNW) 15:21:16 437.325
YUBILEINY 08 Feb 15:14:20 15:22:56 58° 269° (W) 15:31:27 435.215
Cosmos 2491 08 Feb 15:20:01 15:28:43 82° 96° (E) 15:37:28 435.465 / 435.565
SO-50 08 Feb 15:20:01 15:23:03 17° 251° (WSW) 15:26:01 436.795
BEESAT 08 Feb 15:22:32 15:26:27 25° 295° (WNW) 15:30:21 436.000
M-CUBED/EXP-1 PRIME 08 Feb 15:27:43 15:31:11 38° 255° (WSW) 15:34:28 437.505
MOZHAYETS 4 08 Feb 15:31:26 15:35:31 29° 95° (E) 15:39:35
STARS 08 Feb 15:35:42 15:39:52 42° 99° (E) 15:44:01 437.465
AUBIESAT-1 08 Feb 15:38:58 15:42:20 34° 256° (WSW) 15:45:32 437.475
CUTE-I 08 Feb 15:42:12 15:44:10 12° 55° (NE) 15:46:08 437.470
ISS 08 Feb 15:42:32 15:45:05 21° 136° (SE) 15:47:38 145.825
KKS-1 08 Feb 15:48:38 15:53:05 77° 285° (WNW) 15:57:29 437.445
Cosmos 2504 08 Feb 15:49:15 15:57:55 63° 77° (ENE) 16:05:59 435.465 / 435.565
Cubesat XI-IV 08 Feb 15:54:14 15:57:14 15° 57° (ENE) 16:00:15 437.490
RS-15 08 Feb 16:05:24 16:15:00 28° 354° (N) 16:24:57 29.354- 29.394
AO-7 08 Feb 16:10:22 16:17:37 32° 264° (W) 16:24:56 29.400- 29.500
HORYU 2 08 Feb 16:15:46 16:19:47 34° 262° (W) 16:23:50 437.375
O/OREOS (USA 219) 08 Feb 16:26:36 16:29:23 16° 50° (NE) 16:32:10 437.305
BRITE-PL 08 Feb 16:55:30 17:00:17 29° 66° (ENE) 17:04:58 437.365/2234.400
LilacSat-2 08 Feb 16:57:01 17:00:28 33° 71° (ENE) 17:03:54 437.200
AO-85 08 Feb 16:59:15 17:01:40 13° 24° (NNE) 17:04:01 145.980
BEESAT 3 08 Feb 17:07:22 17:11:04 38° 118° (ESE) 17:14:46 437.485
MOZHAYETS 4 08 Feb 17:08:35 17:12:39 31° 292° (WNW) 17:16:43
STARS 08 Feb 17:12:46 17:15:58 20° 296° (WNW) 17:19:09 437.465
YUBILEINY 08 Feb 17:16:52 17:17:37 10° 291° (WNW) 17:18:22 435.215
CUTE-I 08 Feb 17:18:00 17:23:18 76° 73° (ENE) 17:28:39 437.470
ISS 08 Feb 17:18:06 17:21:18 57° 334° (NNW) 17:24:31 145.825
Cosmos 2491 08 Feb 17:19:58 17:26:39 24° 298° (WNW) 17:33:22 435.465 / 435.565
BEESAT 2 08 Feb 17:28:57 17:32:44 41° 118° (ESE) 17:36:33 435.950
Cubesat XI-IV 08 Feb 17:31:16 17:36:35 84° 255° (WSW) 17:41:59 437.490
Cosmos 2504 08 Feb 17:43:29 17:50:39 30° 278° (W) 17:57:28 435.465 / 435.565
CUBESAT XI-V 08 Feb 17:44:52 17:49:37 74° 102° (ESE) 17:54:17 437.345
PCSat 08 Feb 17:45:40 17:47:45 12° 30° (NNE) 17:49:50 145.827
STRAND 1 08 Feb 17:53:32 17:55:43 13° 88° (E) 17:57:54 437.568
DOVE 4 08 Feb 17:57:10 18:01:25 28° 67° (ENE) 18:05:30 437.250
HO-68 08 Feb 18:00:38 18:06:31 28° 58° (ENE) 18:12:24 435.675
O/OREOS (USA 219) 08 Feb 18:04:45 18:09:19 72° 249° (WSW) 18:13:54 437.305
CUTE 1.7 + AOD 2 08 Feb 18:06:52 18:08:34 12° 61° (ENE) 18:10:16 437.475
GOMX 1 08 Feb 18:07:50 18:13:12 63° 73° (ENE) 18:18:20 467.674
SEEDS 08 Feb 18:15:58 18:17:23 12° 60° (ENE) 18:18:47 437.485
RS-15 08 Feb 18:21:11 18:32:05 38° 29° (NNE) 18:43:15 29.354- 29.394
LilacSat-2 08 Feb 18:32:08 18:34:53 19° 267° (W) 18:37:37 437.200
BRITE-PL 08 Feb 18:33:01 18:38:30 47° 262° (W) 18:43:53 437.365/2234.400
AAUSAT CUBESAT 2 08 Feb 18:34:31 18:35:40 11° 60° (ENE) 18:36:50 437.432
AO-85 08 Feb 18:38:36 18:43:38 44° 47° (NE) 18:48:16 145.980
GONETS M04 08 Feb 18:42:42 18:50:05 29° 65° (ENE) 18:57:26
BEESAT 3 08 Feb 18:45:36 18:48:56 25° 316° (NW) 18:52:17 437.485
CANX-2 08 Feb 18:49:09 18:53:00 36° 70° (ENE) 18:56:53 2200.000
ISS 08 Feb 18:55:34 18:58:14 23° 353° (N) 19:00:54 145.825
CUTE-I 08 Feb 19:01:00 19:03:56 15° 271° (W) 19:06:54 437.470
CINEMA 3 08 Feb 19:01:19 19:05:37 39° 70° (ENE) 19:09:45 145.822/145.860
Cosmos 2499 08 Feb 19:02:50 19:07:52 17° 55° (NE) 19:12:43 435.465 / 435.565
BEESAT 2 08 Feb 19:07:30 19:10:48 24° 317° (NW) 19:14:06 435.950
AIST 2 08 Feb 19:13:26 19:17:31 55° 120° (ESE) 19:21:37 435.215
Cubesat XI-IV 08 Feb 19:16:05 19:17:28 11° 273° (W) 19:18:51 437.490
CUBEBUG 2 08 Feb 19:18:12 19:21:29 21° 66° (ENE) 19:24:42 437.445
UWE-3 08 Feb 19:22:17 19:25:04 17° 64° (ENE) 19:27:50 435.000/436.395/437.385
CUBESAT XI-V 08 Feb 19:23:53 19:26:23 14° 300° (WNW) 19:28:54 437.345
PCSat 08 Feb 19:27:18 19:32:35 47° 52° (NE) 19:37:47 145.827
Oscar 11 08 Feb 19:27:40 19:30:38 18° 64° (ENE) 19:33:36 145.826/435.025
STRAND 1 08 Feb 19:30:20 19:35:33 84° 283° (WNW) 19:40:42 437.568
DOVE 4 08 Feb 19:34:12 19:38:58 38° 263° (W) 19:43:33 437.250
COMPASS 1 08 Feb 19:36:33 19:40:38 59° 74° (ENE) 19:44:45 437.405
CUTE 1.7 + AOD 2 08 Feb 19:39:39 19:43:50 72° 259° (W) 19:48:05 437.475
HO-68 08 Feb 19:46:36 19:53:43 65° 257° (WSW) 20:00:53 435.675
GOMX 1 08 Feb 19:47:54 19:51:36 19° 269° (W) 19:55:15 467.674
SEEDS 08 Feb 19:48:19 19:52:29 76° 258° (WSW) 19:56:42 437.485
PRISM 08 Feb 19:55:03 19:59:13 61° 101° (ESE) 20:03:20 437.425
DELFI C3 08 Feb 19:56:46 19:59:33 19° 65° (ENE) 20:02:22 145.870
AAUSAT CUBESAT 2 08 Feb 20:06:26 20:10:33 78° 259° (WSW) 20:14:44 437.432
ZACube-1 08 Feb 20:17:49 20:21:50 45° 72° (ENE) 20:25:49 437.345
AIST 1 08 Feb 20:19:20 20:20:16 11° 64° (ENE) 20:21:12
AO-85 08 Feb 20:19:34 20:23:57 29° 248° (WSW) 20:28:00 145.980
CANX-2 08 Feb 20:25:48 20:28:59 21° 267° (W) 20:32:12 2200.000
FUNcube-1 08 Feb 20:27:27 20:31:34 54° 73° (ENE) 20:35:38 145.935
ISS 08 Feb 20:32:33 20:35:23 26° 13° (NNE) 20:38:13 145.825
RS-15 08 Feb 20:34:10 20:46:23 88° 55° (NE) 20:58:47 29.354- 29.394
GONETS M04 08 Feb 20:38:56 20:47:40 69° 267° (W) 20:56:23
CINEMA 3 08 Feb 20:39:14 20:42:51 22° 266° (W) 20:46:23 145.822/145.860
HUMSAT D 08 Feb 20:47:47 20:51:18 28° 69° (ENE) 20:54:49 437.325/437.525
AIST 2 08 Feb 20:53:09 20:56:20 21° 319° (NW) 20:59:31 435.215
CUBEBUG 2 08 Feb 20:53:53 20:57:55 37° 262° (W) 21:01:53 437.445
Cosmos 2499 08 Feb 20:54:14 21:02:48 74° 79° (E) 21:10:39 435.465 / 435.565
UWE-3 08 Feb 20:57:06 21:01:13 46° 261° (W) 21:05:17 435.000/436.395/437.385
ESTCUBE 1 08 Feb 21:02:01 21:03:39 12° 59° (ENE) 21:05:17 437.505/2401.250
Oscar 11 08 Feb 21:02:19 21:06:26 45° 261° (W) 21:10:36 145.826/435.025
UKube-1 08 Feb 21:06:09 21:06:27 10° 58° (ENE) 21:06:46 .
PCSat 08 Feb 21:11:09 21:15:44 28° 251° (WSW) 21:20:16 145.827
STRAND 1 08 Feb 21:11:41 21:13:55 13° 304° (WNW) 21:16:08 437.568
ANTELSAT 08 Feb 21:11:55 21:12:27 10° 88° (E) 21:12:59 437.575/2403.000
DX 1 08 Feb 21:13:41 21:16:06 15° 61° (ENE) 21:18:32 434.975-435.025
COMPASS 1 08 Feb 21:14:48 21:16:37 13° 271° (W) 21:18:26 437.405
TIGRISAT 08 Feb 21:18:16 21:19:50 12° 89° (E) 21:21:24 435.000
DELFI C3 08 Feb 21:30:30 21:34:13 38° 262° (W) 21:37:58 145.870
PRISM 08 Feb 21:31:52 21:34:04 14° 299° (WNW) 21:36:14 437.425
HO-68 08 Feb 21:41:14 21:42:47 11° 276° (W) 21:44:20 435.675
AIST 1 08 Feb 21:54:07 21:58:30 79° 264° (W) 22:02:48
ZACube-1 08 Feb 21:55:40 21:58:23 17° 268° (W) 22:01:05 437.345
50 SAT 08 Feb 21:57:23 22:00:48 37° 71° (ENE) 22:04:16 437.505
UNISAT 6 08 Feb 22:00:31 22:04:29 35° 97° (E) 22:08:31 437.425
VELOX 1 08 Feb 22:01:58 22:06:07 39° 69° (ENE) 22:10:16 145.980
FUNcube-1 08 Feb 22:06:01 22:08:09 14° 270° (W) 22:10:17 145.935
ISS 08 Feb 22:08:52 22:12:08 85° 210° (SSW) 22:15:23 145.825
AISAT 08 Feb 22:18:07 22:22:31 60° 73° (ENE) 22:26:57 437.250
HUMSAT D 08 Feb 22:23:34 22:26:57 25° 265° (W) 22:30:20 437.325/437.525
POLYITAN 1 08 Feb 22:28:11 22:30:58 17° 92° (E) 22:33:45 437.675
QB50P2 08 Feb 22:28:49 22:31:43 18° 92° (E) 22:34:36 145.880/145.840
ESTCUBE 1 08 Feb 22:35:15 22:39:46 86° 256° (WSW) 22:44:21 437.505/2401.250
UKube-1 08 Feb 22:37:27 22:41:47 86° 75° (ENE) 22:46:09 .
GONETS M04 08 Feb 22:38:57 22:42:44 14° 288° (WNW) 22:46:31
CUBEBUG 1 08 Feb 22:41:09 22:45:36 83° 74° (ENE) 22:50:04 437.445
ANTELSAT 08 Feb 22:45:22 22:49:42 78° 284° (WNW) 22:54:06 437.575/2403.000
DX 1 08 Feb 22:47:26 22:51:47 64° 258° (WSW) 22:56:10 434.975-435.025
RS-15 08 Feb 22:47:56 22:57:25 28° 258° (WSW) 23:07:01 29.354- 29.394
Cosmos 2499 08 Feb 22:48:39 22:54:57 24° 281° (W) 23:00:56 435.465 / 435.565
SPROUT 08 Feb 22:49:09 22:53:05 36° 70° (ENE) 22:57:02 437.525
TIGRISAT 08 Feb 22:52:41 22:56:58 69° 286° (WNW) 23:01:20 435.000
POPSAT HIP 1 08 Feb 22:58:10 23:02:01 34° 97° (E) 23:05:51 437.405
TISAT 1 08 Feb 23:03:25 23:06:35 21° 65° (ENE) 23:09:44 437.305
NANOSAT C BR1 08 Feb 23:03:32 23:07:28 38° 98° (E) 23:11:23 145.865
DUCHIFAT 1 08 Feb 23:05:29 23:09:25 38° 98° (E) 23:13:19 145.980
QB50P1 08 Feb 23:10:46 23:14:51 48° 100° (E) 23:18:54 145.935-145.965
50 SAT 08 Feb 23:32:43 23:35:00 16° 268° (W) 23:37:20 437.505
UNISAT 6 08 Feb 23:37:37 23:41:03 24° 294° (WNW) 23:44:33 437.425
VELOX 1 08 Feb 23:39:16 23:42:43 22° 266° (W) 23:46:12 145.980
ISS 08 Feb 23:46:53 23:48:06 12° 229° (SW) 23:49:19 145.825
AISAT 08 Feb 23:56:59 23:59:24 14° 270° (W) 00:01:50 437.250
POLYITAN 1 09 Feb 00:03:01 00:07:01 44° 289° (WNW) 00:11:01 437.675
QB50P2 09 Feb 00:03:45 00:07:44 42° 289° (WNW) 00:11:43 145.880/145.840
SWISSCUBE 09 Feb 00:07:48 00:11:31 23° 64° (ENE) 00:15:16 437.505
BUGSAT 1 09 Feb 00:11:50 00:15:53 72° 285° (WNW) 00:19:53 437.445
CUBEBUG 1 09 Feb 00:22:17 00:22:28 10° 272° (W) 00:22:39 437.445
SPROUT 09 Feb 00:25:49 00:29:10 22° 266° (W) 00:32:31 437.525
POPSAT HIP 1 09 Feb 00:34:21 00:37:38 22° 294° (WNW) 00:40:55 437.405
TISAT 1 09 Feb 00:38:03 00:42:01 38° 262° (W) 00:45:59 437.305
NANOSAT C BR1 09 Feb 00:39:53 00:42:59 20° 295° (WNW) 00:46:04 145.865
PHONESAT 2.4 09 Feb 00:41:13 00:42:25 12° 151° (SSE) 00:43:36 2401.200-2431.200
DUCHIFAT 1 09 Feb 00:41:48 00:44:53 20° 295° (WNW) 00:47:57 145.980
ITUPSAT 1 09 Feb 00:43:06 00:47:36 43° 69° (ENE) 00:52:09 437.325
QB50P1 09 Feb 00:47:34 00:50:17 17° 297° (WNW) 00:53:00 145.935-145.965
CUSAT 1 09 Feb 00:50:00 00:57:00 35° 87° (E) 01:04:04 437.405
BEESAT 09 Feb 00:52:08 00:56:45 54° 72° (ENE) 01:01:25 436.000
JAS-2 09 Feb 01:11:00 01:16:09 33° 94° (E) 01:20:53 435.910
KKS-1 09 Feb 01:14:04 01:16:22 14° 60° (ENE) 01:18:40 437.445
DANDE 09 Feb 01:14:42 01:21:23 33° 85° (E) 01:28:35 436.750
Oscar 19 09 Feb 01:16:11 01:21:13 53° 100° (E) 01:26:13 437.125/150
BEESAT 3 09 Feb 01:23:25 01:27:10 39° 49° (NE) 01:30:52 437.485
Cosmos 2491 09 Feb 01:28:31 01:36:48 44° 72° (ENE) 01:45:05 435.465 / 435.565
Gurwin Techsat 1B 09 Feb 01:39:06 01:43:55 34° 96° (E) 01:48:42 435.225
SWISSCUBE 09 Feb 01:44:32 01:49:04 43° 261° (W) 01:53:39 437.505
BEESAT 2 09 Feb 01:45:45 01:49:35 43° 50° (NE) 01:53:23 435.950
AIST 2 09 Feb 01:56:46 01:58:08 11° 32° (NNE) 01:59:29 435.215
PHONESAT 2.4 09 Feb 02:16:08 02:19:06 31° 167° (SSE) 02:22:03 2401.200-2431.200
AO-7 09 Feb 02:17:57 02:22:48 16° 88° (E) 02:27:36 29.400- 29.500
YUBILEINY 09 Feb 02:21:07 02:28:51 37° 85° (E) 02:36:39 435.215
ITUPSAT 1 09 Feb 02:21:57 02:25:38 22° 267° (W) 02:29:21 437.325
ITAMSAT 1 09 Feb 02:22:47 02:27:48 44° 99° (E) 02:32:47 435.822/435.867
CUSAT 1 09 Feb 02:31:07 02:38:58 58° 286° (WNW) 02:46:52 437.405
BEESAT 09 Feb 02:31:42 02:34:53 18° 268° (W) 02:38:05 436.000
STARS 09 Feb 02:33:42 02:37:55 46° 71° (ENE) 02:42:08 437.465
MOZHAYETS 4 09 Feb 02:34:50 02:38:55 33° 68° (ENE) 02:43:02
KKS-1 09 Feb 02:47:56 02:52:24 70° 258° (WSW) 02:56:52 437.445
JAS-2 09 Feb 02:56:05 03:01:16 34° 296° (WNW) 03:06:03 435.910
DANDE 09 Feb 02:56:07 03:03:49 63° 285° (WNW) 03:12:17 436.750
Oscar 19 09 Feb 02:56:19 03:00:10 22° 298° (WNW) 03:04:00 437.125/150
BEESAT 3 09 Feb 03:01:39 03:04:41 21° 247° (WSW) 03:07:42 437.485
CUBESAT XI-V 09 Feb 03:16:12 03:17:29 11° 58° (ENE) 03:18:45 437.345
Gurwin Techsat 1B 09 Feb 03:19:04 03:23:50 34° 294° (WNW) 03:28:35 435.225
BEESAT 2 09 Feb 03:24:17 03:27:12 20° 248° (WSW) 03:30:05 435.950
Cosmos 2491 09 Feb 03:25:32 03:33:37 44° 273° (W) 03:41:43 435.465 / 435.565
AIST 2 09 Feb 03:33:25 03:37:31 59° 52° (NE) 03:41:35 435.215
PHONESAT 2.4 09 Feb 03:52:56 03:56:04 41° 183° (S) 03:59:10 2401.200-2431.200
SO-50 09 Feb 03:55:47 03:58:34 15° 108° (ESE) 04:01:23 436.795
ITAMSAT 1 09 Feb 04:02:43 04:07:02 27° 296° (WNW) 04:11:21 435.822/435.867
HORYU 2 09 Feb 04:04:42 04:08:51 37° 98° (E) 04:13:00 437.375
AO-7 09 Feb 04:08:27 04:16:51 80° 107° (ESE) 04:25:09 29.400- 29.500
STARS 09 Feb 04:11:31 04:14:31 18° 268° (W) 04:17:33 437.465
MOZHAYETS 4 09 Feb 04:12:18 04:16:07 26° 266° (W) 04:19:59
YUBILEINY 09 Feb 04:16:48 04:25:20 53° 285° (WNW) 04:33:58 435.215
CUSAT 1 09 Feb 04:18:57 04:22:57 14° 306° (NW) 04:26:55 437.405
Cosmos 2504 09 Feb 04:28:11 04:36:20 50° 88° (E) 04:44:47 435.465 / 435.565
M-CUBED/EXP-1 PRIME 09 Feb 04:39:38 04:42:59 74° 290° (WNW) 04:46:29 437.505
DANDE 09 Feb 04:43:51 04:48:37 16° 307° (NW) 04:53:32 436.750
CUBESAT XI-V 09 Feb 04:49:23 04:54:04 84° 77° (ENE) 04:58:50 437.345
AUBIESAT-1 09 Feb 04:50:12 04:53:36 67° 290° (WNW) 04:57:08 437.475
STRAND 1 09 Feb 05:10:12 05:14:08 23° 62° (ENE) 05:18:06 437.568
AIST 2 09 Feb 05:13:12 05:15:33 15° 250° (WSW) 05:17:52 435.215
PHONESAT 2.4 09 Feb 05:30:18 05:32:57 22° 200° (SSW) 05:35:34 2401.200-2431.200
SO-50 09 Feb 05:33:32 05:38:27 77° 306° (NW) 05:43:26 436.795
CUTE-I 09 Feb 05:33:55 05:38:25 27° 94° (E) 05:42:54 437.470
HORYU 2 09 Feb 05:41:43 05:45:13 23° 295° (WNW) 05:48:44 437.375
Cubesat XI-IV 09 Feb 05:47:07 05:52:01 34° 96° (E) 05:56:53 437.490
AO-7 09 Feb 06:02:11 06:08:48 28° 308° (NW) 06:15:25 29.400- 29.500
LilacSat-2 09 Feb 06:02:52 06:06:27 39° 98° (E) 06:10:00 437.200
GOMX 1 09 Feb 06:10:19 06:12:36 14° 88° (E) 06:14:50 467.674
Cosmos 2504 09 Feb 06:21:55 06:29:54 41° 290° (WNW) 06:38:12 435.465 / 435.565
YUBILEINY 09 Feb 06:22:05 06:24:39 11° 310° (NW) 06:27:15 435.215
CUBESAT XI-V 09 Feb 06:30:52 06:32:05 11° 273° (W) 06:33:18 437.345
BRITE-PL 09 Feb 06:36:54 06:41:40 55° 99° (E) 06:46:02 437.365/2234.400
O/OREOS (USA 219) 09 Feb 06:43:44 06:44:11 10° 96° (E) 06:44:37 437.305
PRISM 09 Feb 06:45:53 06:49:56 54° 72° (ENE) 06:54:02 437.425
STRAND 1 09 Feb 06:48:02 06:52:59 50° 260° (W) 06:57:59 437.568
HO-68 09 Feb 07:13:22 07:18:53 23° 91° (E) 07:24:21 435.675
CUTE-I 09 Feb 07:13:33 07:18:39 44° 291° (WNW) 07:23:42 437.470
SO-50 09 Feb 07:16:32 07:19:47 17° 327° (NNW) 07:23:02 436.795
CUTE 1.7 + AOD 2 09 Feb 07:23:55 07:26:51 18° 92° (E) 07:29:47 437.475
Cubesat XI-IV 09 Feb 07:27:14 07:32:03 34° 294° (WNW) 07:36:52 437.490
DOVE 4 09 Feb 07:31:35 07:35:45 49° 99° (E) 07:39:47 437.250
SEEDS 09 Feb 07:31:47 07:34:30 16° 91° (E) 07:37:11 437.485
LilacSat-2 09 Feb 07:38:05 07:40:29 16° 295° (WNW) 07:42:52 437.200
Cosmos 2499 09 Feb 07:45:48 07:48:12 11° 70° (ENE) 07:50:36 435.465 / 435.565
GOMX 1 09 Feb 07:46:47 07:51:12 57° 287° (WNW) 07:55:22 467.674
GONETS M04 09 Feb 07:46:50 07:53:57 30° 82° (E) 08:01:06
AAUSAT CUBESAT 2 09 Feb 07:48:34 07:51:00 15° 91° (E) 07:53:25 437.432
CANX-2 09 Feb 08:07:54 08:12:09 59° 101° (E) 08:16:23 2200.000
ANTELSAT 09 Feb 08:12:05 08:13:49 12° 60° (ENE) 08:15:32 437.575/2403.000
BRITE-PL 09 Feb 08:16:26 08:19:39 18° 299° (WNW) 08:22:43 437.365/2234.400
O/OREOS (USA 219) 09 Feb 08:18:22 08:22:50 83° 294° (WNW) 08:27:23 437.305
TIGRISAT 09 Feb 08:18:44 08:20:53 14° 62° (ENE) 08:23:01 435.000
PRISM 09 Feb 08:23:24 08:25:37 14° 269° (W) 08:27:50 437.425
CINEMA 3 09 Feb 08:31:03 08:35:14 76° 102° (ESE) 08:39:24 145.822/145.860
CUBEBUG 2 09 Feb 08:42:43 08:46:35 36° 97° (E) 08:50:30 437.445
UWE-3 09 Feb 08:45:05 08:48:43 28° 96° (E) 08:52:23 435.000/436.395/437.385
Oscar 11 09 Feb 08:48:01 08:51:47 28° 95° (E) 08:55:31 145.826/435.025
COMPASS 1 09 Feb 08:53:16 08:57:31 88° 280° (W) 09:01:44 437.405
AO-85 09 Feb 08:58:01 08:59:16 11° 104° (ESE) 09:00:32 145.980
CUTE 1.7 + AOD 2 09 Feb 08:58:51 09:02:55 44° 289° (WNW) 09:07:00 437.475
HO-68 09 Feb 09:00:02 09:07:13 72° 290° (WNW) 09:14:22 435.675
UNISAT 6 09 Feb 09:00:59 09:04:58 37° 70° (ENE) 09:08:54 437.425
SEEDS 09 Feb 09:06:22 09:10:28 48° 288° (WNW) 09:14:34 437.485
DELFI C3 09 Feb 09:07:08 09:10:26 24° 94° (E) 09:13:43 145.870
DOVE 4 09 Feb 09:10:26 09:13:04 16° 298° (WNW) 09:15:39 437.250
AAUSAT CUBESAT 2 09 Feb 09:22:43 09:26:48 51° 287° (WNW) 09:30:53 437.432
POLYITAN 1 09 Feb 09:22:49 09:25:34 17° 63° (ENE) 09:28:20 437.675
QB50P2 09 Feb 09:23:23 09:26:14 18° 64° (ENE) 09:29:06 145.880/145.840
Cosmos 2499 09 Feb 09:30:51 09:39:19 59° 91° (E) 09:48:01 435.465 / 435.565
BUGSAT 1 09 Feb 09:31:25 09:32:06 10° 60° (ENE) 09:32:47 437.445
ZACube-1 09 Feb 09:40:17 09:44:30 80° 102° (ESE) 09:48:47 437.345
GONETS M04 09 Feb 09:41:32 09:50:07 64° 283° (WNW) 09:58:48
CANX-2 09 Feb 09:45:08 09:47:33 15° 297° (WNW) 09:49:58 2200.000
ANTELSAT 09 Feb 09:45:40 09:49:59 74° 257° (WSW) 09:54:16 437.575/2403.000
FUNcube-1 09 Feb 09:49:42 09:53:55 85° 282° (WNW) 09:58:11 145.935
POPSAT HIP 1 09 Feb 09:52:12 09:55:59 32° 69° (ENE) 09:59:46 437.405
TIGRISAT 09 Feb 09:52:49 09:57:06 64° 259° (W) 10:01:21 435.000
NANOSAT C BR1 09 Feb 09:57:12 10:01:03 35° 70° (ENE) 10:04:55 145.865
DUCHIFAT 1 09 Feb 09:58:55 10:02:46 35° 69° (ENE) 10:06:37 145.980
O/OREOS (USA 219) 09 Feb 10:01:21 10:03:01 12° 314° (NW) 10:04:42 437.305
HUMSAT D 09 Feb 10:04:32 10:08:31 43° 99° (E) 10:12:32 437.325/437.525
QB50P1 09 Feb 10:04:36 10:08:38 44° 71° (ENE) 10:12:40 145.935-145.965
CINEMA 3 09 Feb 10:10:39 10:11:47 11° 300° (WNW) 10:12:56 145.822/145.860
